Weather in Hyvinkaa

Finland     60°38′03″N   24°50′58″E
temp.,
°C
wind,
m/s
gust,
m/s
humid.,
%
clouds,
%
prec.,
mm/h
press.,
hPa
HPBL,
m
11 april, sun
sun1100:000sw414824 0.0 1012423
03:000sw413845 0.1 1014417
06:000sw310880 0.0 1017309
09:00+3wsw35755 0.0 1020324
12:00+7sw35555 0.0 10221099
15:00+8sw3442100 0.0 10231887
18:00+7s2556100 0.0 1024267
21:00+4se3876100 0.0 1025212
12 april, mon
mon1200:00+2se41179100 0.2 1025486
03:00+1e41497100 3.8 1021704
06:00+3se41198100 1.7 1019404
09:00+6sse41294100 1.7 1018444
12:00+10s51277100 0.0 1017723
15:00+12s51271100 0.0 10171072
18:00+10s41273100 0.0 1016945
21:00+9s41375100 0.0 1016722
13 april, tue
tue1300:00+7ssw41189100 0.0 1015641
03:00+6sw3995100 0.1 1015547
06:00+4sw379197 0.0 1015544
09:00+4sw477581 0.0 1016701
12:00+7sw4859100 0.0 10161235
15:00+7sw5851100 0.0 10171500
18:00+6sw5860100 0.0 10181428
21:00+3wsw4871100 0.0 1019758
14 april, wed
wed1400:000w39875 0.0 1021581
03:00−1w399141 0.0 1023554
06:00−1wnw3108897 0.0 1024620
09:00+2nw37618 0.0 1026814
12:00+5nw35455 0.0 10271499
15:00+6nnw34375 0.0 10271506
18:00+6nnw34397 0.0 10271416
21:00+2nnw226212 0.0 102911
15 april, thu
thu1500:00−1nw26805 0.0 1030137
03:00−1wnw25805 0.0 1030108
06:00−1wnw27875 0.0 1029168
09:00+4nw37715 0.0 1030455
12:00+8nnw46565 0.0 1030982
15:00+9nnw46485 0.0 10301627
18:00+10nne465046 0.0 10311737
21:00+4nne39684 0.0 1034316